Regional Weather Roundup
Issued by NWS

Home | Current Version | Previous Version | Graphics & Text | Print | Product List | Glossary On
Versions: 1 2 3 4 5 6 7 8 9 10 11 12 13 14 15 16 17 18 19 20 21 22 23 24 25 26 27 28 29 30 31 32 33 34 35 36 37 38 39 40 41 42 43 44 45 46 47 48 49 50
000
ASUS45 KCYS 041810
RWRWY

WYOMING REGIONAL WEATHER ROUNDUP
NATIONAL WEATHER SERVICE CHEYENNE WY
1200 PM MDT SAT JUL 04 2015

NOTE:  "FAIR" INDICATES FEW OR NO CLOUDS BELOW 12,000 FEET
WITH NO SIGNIFICANT WEATHER AND/OR OBSTRUCTIONS TO VISIBILITY.

WYZ001-041900-
YELLOWSTONE NATIONAL PARK

CITY           SKY/WX    TMP DP  RH WIND       PRES   REMARKS
LK YELLOWSTONE   N/A     71  48  43 VRB3      30.22F
6HR MIN TEMP:  43; 6HR MAX TEMP:  71;

W YELLOWSTONE  NOT AVBL

$$
WYZ002>013-054>058-071-098>099-041900-
NORTHERN WYOMING

CITY           SKY/WX    TMP DP  RH WIND       PRES   REMARKS
JACKSON        FAIR      79  46  31 SW5       30.09F
CODY           FAIR      88  41  19 E7        29.96F
GREYBULL       FAIR      89  49  25 CALM      29.87F
6HR MIN TEMP:  65; 6HR MAX TEMP:  90;

WORLAND        FAIR      87  48  25 VRB3      29.90F
6HR MIN TEMP:  61; 6HR MAX TEMP:  88;

SHERIDAN       FAIR      92  47  21 SE6       29.87F
6HR MIN TEMP:  59; 6HR MAX TEMP:  92;

BUFFALO        FAIR      87  48  25 CALM      29.96F
6HR MIN TEMP:  65; 6HR MAX TEMP:  87;

GILLETTE       FAIR      89  50  26 VRB3      29.92S
6HR MIN TEMP:  62; 6HR MAX TEMP:  89;

HULETT         FAIR      82  59  44 CALM      29.92F
NEWCASTLE      FAIR      79  55  44 MISG      29.93F

$$
WYZ014>020-022>026-101>103-041900-
CENTRAL WYOMING

CITY           SKY/WX    TMP DP  RH WIND       PRES   REMARKS
BIG PINEY      FAIR      84  32  15 W7        30.14F
6HR MIN TEMP:  49; 6HR MAX TEMP:  84;

PINEDALE       FAIR      81  37  21 NW6       30.15F
DUBOIS         FAIR      81  34  18 NW8       30.12S
LANDER         FAIR      86  49  27 CALM      30.00F
6HR MIN TEMP:  59; 6HR MAX TEMP:  86;

RIVERTON       FAIR      84  53  34 E7        30.00F
6HR MIN TEMP:  63; 6HR MAX TEMP:  84;

CASPER         FAIR      86  49  27 MISG      29.98F
6HR MIN TEMP:  54; 6HR MAX TEMP:  86;

DOUGLAS        FAIR      87  50  27 NW5       29.96F
6HR MIN TEMP:  58; 6HR MAX TEMP:  88;


$$
WYZ021-027>030-104>119-041900-
SOUTHERN WYOMING

CITY           SKY/WX    TMP DP  RH WIND       PRES   REMARKS
EVANSTON       PTSUNNY   82  42  24 SW12G17   30.18S
6HR MIN TEMP:  61; 6HR MAX TEMP:  83; 6HR PCP: TRACE;

KEMMERER       FAIR      82  32  16 W7G20     30.18F
FORT BRIDGER   CLEAR     86  39  19 S12G17    30.19F
ROCK SPRINGS   PTSUNNY   83  39  21 W14       30.14S
6HR MIN TEMP:  62; 6HR MAX TEMP:  85;

DIXON          FAIR      85  42  21 CALM      30.15S
RAWLINS        FAIR      85  42  22 W16G25    30.12S
6HR MIN TEMP:  57; 6HR MAX TEMP:  85;

LARAMIE        FAIR      79  43  27 CALM      30.16S
6HR MIN TEMP:  52; 6HR MAX TEMP:  81; 6HR PCP: TRACE;

CHEYENNE       FAIR      86  47  25 N9        30.05F
6HR MIN TEMP:  59; 6HR MAX TEMP:  86;

TORRINGTON     FAIR      85  61  44 VRB5      29.91F
6HR MIN TEMP:  63; 6HR MAX TEMP:  85;

PINE BLUFFS    FAIR      86  50  28 SW3       30.00S

$$


USA.gov is the U.S. government's official web portal to all federal, state and local government web resources and services.